User: anonymous   Login
Location: Arroyo Retuerta
(40.5469°N, 4.3534°W)
Time: 17:19:17
(UTC+00:00)
Language:

Cosmos 1992 Rocket - Orbit

View from above orbital plane
View from above orbital plane
View from above satellite
View from above satellite

Ground track
Ground track

The orbit data is extracted from the following two-line orbital elements,

1 19770U 89005B   20227.74488047 -.00000021  00000-0  17627-5 0  9993
2 19770  74.0441  81.2363 0005718 239.7059 188.4706 14.38840482652611
Epoch (UTC): 14 August 2020 17:52:37
Eccentricity: 0.0005718
inclination: 74.0441°
perigee height: 758 km
apogee height: 766 km
right ascension of ascending node: 81.2363°
argument of perigee: 239.7059°
revolutions per day: 14.38840482
mean anomaly at epoch: 188.4706°
orbit number at epoch: 65261

The dashed part of the orbit path shows where the satellite is in the earth's shadow,  

DLR